Weather in Alekseevka

Russia / Belgorod Oblast     50°45′59″N   37°02′14″E
temp.,
°C
wind,
m/s
gust,
m/s
humid.,
%
clouds,
%
prec.,
mm/h
press.,
hPa
HPBL,
m
16 june, wed
wed1600:00+17nne2291100 1.4 101022
03:00+17ne229165 1.4 101017
06:00+18nne239198 0.0 101174
09:00+21ne237984 0.0 1012406
12:00+24ene236614 0.3 10121155
15:00+25nne116222 1.6 10121319
18:00+23ne357981 1.3 1012347
21:00+19ene348732 1.6 101456
17 june, thu
thu1700:00+17ne410951 0.8 1015194
03:00+17ne4109614 1.1 1016246
06:00+17ne5119517 0.0 1016318
09:00+21ene7108248 0.0 1018725
12:00+23ene797011 0.0 10191188
15:00+24ne787037 0.0 10191501
18:00+22ne710750 0.0 1020797
21:00+18ne613810 0.0 1021390
18 june, fri
fri1800:00+16ne614780 0.0 1022418
03:00+15ene614780 0.0 1023370
06:00+14ene614850 0.0 1024365
09:00+19ene711730 0.0 1024613
12:00+22e78635 0.0 10241298
15:00+22ene68620 0.0 10241427
18:00+21ene69710 0.0 1024907
21:00+17ene411870 0.0 1025226
19 june, sat
sat1900:00+15ene411900 0.0 1026235
03:00+14ene410900 0.0 1026200
06:00+15ene511880 0.0 1027261
09:00+20e6107369 0.0 1027612
12:00+22e786337 0.0 10261162
15:00+23e68615 0.0 10251298
18:00+21e59695 0.0 1025804
21:00+17e49840 0.0 1025171
20 june, sun
sun2000:00+15e410840 0.0 1025177
03:00+14ene49850 0.0 1025168
06:00+14e410850 0.0 1025221
09:00+19e69690 0.0 1025488
12:00+23e67592 0.0 1024991
15:00+24e67570 0.0 10221166
18:00+23e586957 0.0 1021742
21:00+18ene4884100 0.0 1021131